Flag for Canada Weather past 2 weeks in Sidney, British Columbia, Canada

Now
79 °F

Sunny.


Feels Like: 79 °F
Forecast: 60 / 80 °F
Wind: 7 mph from Southeast

Location: Victoria Int. Airportb. C.

Current Time: Jul 3, 2015 at 7:30:59 PM

Latest Report: Jul 3, 2015 at 7:00 PM


Visibility: 30 mi

Pressure: 29.85 "Hg

Humidity: 42%

Dew point: 54 °F

Location of SidneyLocation

Historic Weather in Sidney — Graph

°F

Sidney temperature yesterday

Maximum temperature yesterday: 84 °F (at 4:00 PM)
Minimum temperature yesterday: 59 °F (at 5:00 AM)
Average temperature yesterday: 71 °F

Past Weeks' High & Low Weather Summary

 TemperatureHumidityPressure
High84 °F (Jun 27, 7:00 PM)100% (Jun 19, 4:00 AM)30.16 "Hg (Jun 19, 4:00 AM)
Low50 °F (Jun 19, 4:00 AM)30% (Jun 21, 4:00 PM)29.86 "Hg (Jul 3, 6:00 PM)
Average67 °F63%30.02 "Hg
* Reported Jun 18 6:00 PM — Jul 3 6:00 PM, Sidney, Weather by CustomWeather, © 2015

Note: Actual official high and low records may vary slightly from our data, if they occured in-between our weather recording intervals... More about our weather records

Advertising

Sidney weather history for previous 24 hours

 ConditionsComfort  
Time TempWeatherWind HumidityBarometerVisibility
6:00 PM
Fri, Jul 3
81 °FSunny.7 mph39%29.86 "Hg30 mi
5:00 PM81 °FSunny.7 mph39%29.88 "Hg30 mi
4:00 PM81 °FSunny.3 mph39%29.89 "Hg30 mi
3:00 PM81 °FSunny.7 mph39%29.91 "Hg30 mi
2:00 PM81 °FPassing clouds.7 mph42%29.93 "Hg30 mi
1:00 PM77 °FPassing clouds.6 mph44%29.94 "Hg30 mi
12:00 PM75 °FPassing clouds.7 mph50%29.95 "Hg30 mi
11:00 AM72 °FPassing clouds.8 mph57%29.96 "Hg30 mi
10:00 AM70 °FPassing clouds.10 mph57%29.96 "Hg30 mi
9:00 AM68 °FPassing clouds.8 mph60%29.96 "Hg30 mi
8:00 AM66 °FSunny.7 mph68%29.96 "Hg30 mi
7:00 AM63 °FPassing clouds.2 mph77%29.96 "Hg30 mi
6:00 AM57 °FPassing clouds.2 mph88%29.95 "Hg30 mi
5:00 AM57 °FPassing clouds.2 mph88%29.95 "Hg30 mi
4:00 AM57 °FPassing clouds.2 mph82%29.94 "Hg30 mi
3:00 AM57 °FPassing clouds.3 mph82%29.94 "Hg30 mi
2:00 AM59 °FPassing clouds.No wind77%29.94 "Hg30 mi
1:00 AM59 °FPassing clouds.5 mph82%29.94 "Hg30 mi
12:00 AM61 °FPassing clouds.5 mph77%29.93 "Hg30 mi
11:00 PM
Thu, Jul 2
63 °FPassing clouds.3 mph73%29.93 "Hg30 mi
10:00 PM68 °FPartly sunny.2 mph60%29.92 "Hg30 mi
9:00 PM68 °FPartly sunny.5 mph60%29.92 "Hg30 mi
8:00 PM72 °FScattered clouds.7 mph53%29.92 "Hg30 mi
7:00 PM81 °FScattered clouds.8 mph42%29.93 "Hg30 mi
Weather by CustomWeather, © 2015

See weather overviewHow to use our weather pages